sat.trackr.live / text

‹ back to catalog

YAOGAN-39 03C

NORAD 57990 · 2023-152E

PAYLOAD ACTIVE UNKNOWN

§ Identity

Operator
Country
PRC
Launch date
2023-10-05
Launch site
XICLF
Launch vehicle
Mass (kg)
RCS (m²)

External: N2YO · Heavens-Above · Gunter

§ Orbital elements

Epoch: 2026-05-25T04:10:12.931392Z

Period
94.88 min
Inclination
34.9904°
Eccentricity
0.0011126
Mean motion
15.17754434 rev/d
Perigee alt
505.0 km
Apogee alt
520.3 km
Semi-major
6,890.8 km
B*
1.8870e-4
RAAN
79.6439°
Arg perigee
292.7041°
Mean anomaly
67.2496°
Rev number
14,666

§ Raw data

YAOGAN-39 03C1 57990U 23152E   26145.17376078  .00003872  00000+0  18870-3 0  99962 57990  34.9904  79.6439 0011126 292.7041  67.2496 15.17754434146663

JSON: /api/v1/satellites/57990 · /tle

For live sub-satellite position, see the globe view (requires WebGL).

§ Visibility from observer

Set your observer location to see the next 7 days of passes ≥ 10°. The values pass through the URL so the page stays shareable.

No JS? Fill the form by hand. The geolocation button needs JavaScript.